Location: *
(50.5492°N, 7.7469°E)
Time: 15:38:19
(UTC+00:00)

SJ 16-02 - Pass Details

Date: 21 October 2019
Orbit: 607 x 616 km, 75.0° (Epoch: 13 November)

Event Time Altitude Azimuth Distance (km) Brightness Sun altitude
Rises 19:57:45 0° 326° (NNW) 2,881 5.6 -33.7°
Reaches altitude 10° 20:00:23 10° 312° (NW) 1,970 4.7 -34.1°
Enters shadow 20:02:46 20° 281° (W) 1,410 3.7 -34.4°
